Stations météo

Publicité
Tours, France (7240): Température de l'air & dewpoint: 17.04.2019 03:00:00 - 23.04.2019 03:00:00 (CEST)Tours, France (7240): Température de l'air 5cm: 17.04.2019 03:00:00 - 23.04.2019 03:00:00 (CEST)Tours, France (7240): Température de l'air -20cm & Température de l'air -100cm: 17.04.2019 03:00:00 - 23.04.2019 03:00:00 (CEST)Tours, France (7240): Vitesse du vent & gusts: 17.04.2019 03:00:00 - 23.04.2019 03:00:00 (CEST)Tours, France (7240): Direction du vent: 17.04.2019 03:00:00 - 23.04.2019 03:00:00 (CEST)Tours, France (7240): reduced air pressure: 17.04.2019 03:00:00 - 23.04.2019 03:00:00 (CEST)Tours, France (7240): visibility: 17.04.2019 03:00:00 - 23.04.2019 03:00:00 (CEST)Tours, France (7240): Ensoleillement: 17.04.2019 03:00:00 - 23.04.2019 03:00:00 (CEST)Tours, France (7240): Quantités de précipitations: 17.04.2019 03:00:00 - 23.04.2019 03:00:00 (CEST)
Date & Time tt [°C] td [°C] tt 5cm [°C] tt -20cm [°C] tt -100cm [°C] ff [km/h] ff [knt] fx [km/h] fx [knt] dd ppp [hPa] vv [km] sd [min] rr [mm]
23.04.2019 03:00:00 14,2 10,6 10,5 15,3 12,2 3 2 8 4 N 997,5 43 0 0,0
23.04.2019 02:00:00 14,3 10,9 12,1 15,3 12,2 4 2 6 4 W 998,1 51 0 0,0
23.04.2019 01:00:00 15,0 10,2 9,8 15,4 12,2 4 2 9 5 E 998,4 41 0 0,0
23.04.2019 00:00:00 15,7 10,0 11,9 15,4 12,2 7 4 11 6 ENE 998,7 52 0 0,0
22.04.2019 23:00:00 17,6 10,5 14,4 15,4 12,2 7 4 12 6 NNE 998,8 58 0 0,0
22.04.2019 22:00:00 18,6 9,6 15,2 15,4 12,2 4 2 12 7 N 999,2 60 0 0,0
22.04.2019 21:00:00 18,2 10,3 16,3 15,4 12,2 9 5 22 12 ENE 999,4 60 0 0,0
22.04.2019 20:00:00 19,1 9,8 17,7 15,3 12,1 11 6 27 15 ENE 999,4 60 0 0,0
22.04.2019 19:00:00 20,6 10,7 19,8 15,2 12,1 10 6 24 13 NE 999,4 49 0 0,0
22.04.2019 18:00:00 20,8 11,1 21,0 15,0 12,1 15 8 33 18 ENE 1000,0 53 2 0,0
22.04.2019 17:00:00 21,9 11,9 24,7 14,8 12,1 14 8 32 17 ENE 1000,7 20 60 0,0
22.04.2019 16:00:00 21,4 12,0 23,8 14,7 12,1 14 7 29 16 ENE 1001,9 60 56 0,0
22.04.2019 15:00:00 20,5 11,4 23,2 14,5 12,1 14 8 28 15 ENE 1003,0 17 34 0,0
22.04.2019 14:00:00 19,3 10,8 22,4 14,5 12,1 13 7 23 13 E 1004,2 39 38 0,0
22.04.2019 13:00:00 19,3 11,3 18,0 14,4 12,0 11 6 23 13 ESE 1005,3 37 7 0,0
22.04.2019 12:00:00 18,4 12,8 20,4 14,4 12,0 13 7 23 13 ENE 1005,8 20 18 0,0
22.04.2019 11:00:00 16,9 12,2 17,8 14,4 12,0 8 5 13 7 ENE 1006,5 20 4 0,0
22.04.2019 10:00:00 15,1 10,9 15,7 14,5 12,0 8 4 12 6 E 1007,2 28 25 0,0
22.04.2019 09:00:00 13,5 10,3 12,0 14,5 12,0 5 3 7 4 ENE 1007,7 46 47 0,0
22.04.2019 08:00:00 9,8 8,6 7,3 14,6 12,0 6 3 11 6 ENE 1008,2 28 33 0,0
22.04.2019 07:00:00 9,5 8,3 8,0 14,7 12,0 8 5 11 6 ENE 1008,5 36 0 0,0
22.04.2019 06:00:00 10,7 8,5 7,1 14,8 12,0 3 1 5 3 NNE 1009,1 40 0 0,0
22.04.2019 05:00:00 10,6 7,8 6,6 14,9 11,9 4 2 11 6 SE 1009,7 48 0 0,0
22.04.2019 04:00:00 11,6 8,1 6,0 15,0 12,0 0 0 6 4 N 1010,4 55 0 0,0
22.04.2019 03:00:00 12,9 8,6 7,7 15,1 11,9 5 3 17 9 W 1011,0 59 0 0,0
22.04.2019 02:00:00 14,5 9,1 12,0 15,1 11,9 8 5 25 14 SW 1012,1 58 0 0,0
22.04.2019 01:00:00 15,4 8,8 13,7 15,2 11,9 17 9 40 22 SSW 1012,8 55 0 0,0
22.04.2019 00:00:00 15,3 10,5 12,0 15,2 11,9 10 6 14 7 S 1012,9 18 0 0,0
21.04.2019 23:00:00 16,0 10,1 10,8 15,2 11,9 9 5 10 6 SSE 1012,9 12 0 0,0
21.04.2019 22:00:00 17,3 9,9 9,9 15,2 11,9 8 4 11 6 S 1013,1 18 0 0,0
21.04.2019 21:00:00 18,0 9,9 12,0 15,1 11,9 3 2 11 6 S 1013,1 18 30 0,0
21.04.2019 20:00:00 19,8 10,2 20,6 15,0 11,8 8 4 15 8 S 1013,2 59 60 0,0
21.04.2019 19:00:00 21,6 9,8 23,7 14,8 11,8 8 5 15 8 SE 1013,4 53 56 0,0
21.04.2019 18:00:00 20,8 11,1 23,5 14,7 11,8 6 3 15 8 ENE 1014,0 15 56 0,0
21.04.2019 17:00:00 22,2 11,0 26,7 14,5 11,8 4 2 11 6 S 1014,6 20 54 0,0
21.04.2019 16:00:00 20,7 9,6 24,1 14,3 11,8 4 2 10 5 ESE 1015,1 50 38 0,0
21.04.2019 15:00:00 19,9 10,0 21,6 14,2 11,8 4 2 13 7 ESE 1016,1 54 0 0,0
21.04.2019 14:00:00 19,7 8,7 24,5 14,0 11,7 3 2 10 5 SSW 1016,7 42 22 0,0
21.04.2019 13:00:00 18,3 8,0 22,9 14,0 11,8 3 2 13 7 SSW 1017,3 36 13 0,0
21.04.2019 12:00:00 17,9 8,2 19,0 14,0 11,7 4 2 21 11 S 1017,8 39 46 0,0
21.04.2019 11:00:00 15,9 9,1 18,0 14,0 11,7 8 5 22 12 E 1018,3 44 47 0,0
21.04.2019 10:00:00 14,4 7,9 15,2 14,1 11,7 12 6 18 10 ENE 1018,5 18 35 0,0
21.04.2019 09:00:00 12,4 7,3 8,8 14,2 11,7 3 2 9 5 E 1018,6 30 1 0,0
21.04.2019 08:00:00 11,0 6,3 8,0 14,3 11,7 3 2 8 4 NNW 1018,8 27 0 0,0
21.04.2019 07:00:00 10,9 6,4 8,1 14,4 11,7 6 3 19 10 NNE 1019,0 28 0 0,0
21.04.2019 06:00:00 11,8 6,5 8,9 14,5 11,7 10 5 25 14 NE 1019,1 30 0 0,0
21.04.2019 05:00:00 12,9 6,0 11,0 14,6 11,6 11 6 24 13 NE 1019,5 43 0 0,0
21.04.2019 04:00:00 14,0 5,6 10,2 14,7 11,6 10 5 22 12 NNE 1019,8 57 0 0,0
21.04.2019 03:00:00 13,4 6,3 8,9 14,8 11,6 10 5 17 9 N 1020,3 58 0 0,0
21.04.2019 02:00:00 12,4 7,3 9,4 14,8 11,6 7 4 12 7 NNW 1021,0 58 0 0,0
21.04.2019 01:00:00 13,4 7,6 10,1 14,9 11,6 9 5 14 7 N 1021,8 58 0 0,0
21.04.2019 00:00:00 13,2 7,6 9,9 15,0 11,6 9 5 14 8 N 1022,2 55 0 0,0
20.04.2019 23:00:00 14,7 7,7 8,1 15,1 11,6 6 3 11 6 N 1022,4 59 0 0,0
20.04.2019 22:00:00 15,6 8,1 9,1 15,1 11,5 3 2 13 7 E 1022,6 57 0 0,0
20.04.2019 21:00:00 18,1 7,2 15,8 15,0 11,5 11 6 36 19 SE 1022,4 60 29 0,0
20.04.2019 20:00:00 21,3 7,5 21,5 14,9 11,5 20 11 40 21 E 1021,7 27 60 0,0
20.04.2019 19:00:00 23,2 5,6 23,1 14,8 11,5 20 11 39 21 NE 1021,4 26 58 0,0
20.04.2019 18:00:00 23,8 7,0 25,2 14,5 11,5 22 12 40 22 ENE 1021,4 29 60 0,0
20.04.2019 17:00:00 24,3 8,3 26,1 14,4 11,5 16 8 37 20 NE 1021,8 37 60 0,0
20.04.2019 16:00:00 23,8 10,1 26,7 14,2 11,5 17 9 32 17 ENE 1022,6 45 57 0,0
20.04.2019 15:00:00 23,5 11,5 26,8 13,9 11,5 13 7 27 15 NE 1023,4 55 60 0,0
20.04.2019 14:00:00 22,2 10,3 26,1 13,8 11,4 16 9 29 15 ENE 1024,1 20 60 0,0
20.04.2019 13:00:00 21,5 11,5 24,6 13,7 11,4 15 8 30 16 E 1024,7 28 60 0,0
20.04.2019 12:00:00 19,8 11,0 23,3 13,7 11,4 20 11 32 18 ENE 1025,2 27 60 0,0
20.04.2019 11:00:00 18,4 11,2 20,2 13,7 11,4 14 8 26 14 ENE 1025,5 28 60 0,0
20.04.2019 10:00:00 16,4 10,3 17,6 13,8 11,4 15 8 26 14 ENE 1025,7 28 60 0,0
20.04.2019 09:00:00 14,2 10,2 14,0 13,8 11,4 7 4 16 9 N 1025,4 19 60 0,0
20.04.2019 08:00:00 11,2 8,8 5,8 14,0 11,4 3 1 6 3 N 1025,0 18 35 0,0
20.04.2019 07:00:00 11,0 7,7 6,9 14,1 11,4 5 3 10 5 SE 1024,9 19 0 0,0
20.04.2019 06:00:00 12,5 8,6 8,6 14,1 11,3 5 3 9 5 N 1024,8 14 0 0,0
20.04.2019 05:00:00 11,7 8,5 9,1 14,2 11,4 5 3 13 7 NNW 1025,1 26 0 0,0
20.04.2019 04:00:00 12,4 8,5 9,0 14,3 11,3 8 5 13 7 NNW 1024,9 26 0 0,0
20.04.2019 03:00:00 13,1 9,0 10,6 14,4 11,3 9 5 13 7 NNW 1025,0 32 0 0,0
20.04.2019 02:00:00 13,8 9,4 10,6 14,5 11,3 9 5 16 8 NNW 1025,3 31 0 0,0
20.04.2019 01:00:00 13,8 9,8 10,7 14,5 11,3 7 4 15 8 NNW 1025,4 35 0 0,0
20.04.2019 00:00:00 14,9 10,7 9,4 14,5 11,3 8 4 15 8 NNW 1025,4 31 0 0,0
19.04.2019 23:00:00 17,3 10,2 10,1 14,5 11,3 4 2 11 6 N 1025,2 39 0 0,0
19.04.2019 22:00:00 19,0 10,0 12,7 14,5 11,2 4 2 14 8 NE 1025,0 55 0 0,0
19.04.2019 21:00:00 18,9 10,5 15,3 14,4 11,3 9 5 17 9 NE 1024,4 58 5 0,0
19.04.2019 20:00:00 20,4 10,8 18,4 14,3 11,2 8 4 19 10 NE 1023,8 60 52 0,0
19.04.2019 19:00:00 24,0 8,0 25,8 14,1 11,2 8 5 21 11 NNW 1023,4 45 60 0,0
19.04.2019 18:00:00 24,5 8,4 28,6 13,8 11,2 8 4 26 14 NNW 1023,3 49 60 0,0
19.04.2019 17:00:00 24,5 6,7 28,6 13,5 11,2 13 7 28 15 NNW 1023,3 54 60 0,0
19.04.2019 16:00:00 24,8 7,9 29,3 13,3 11,2 8 4 23 12 NNW 1023,3 50 60 0,0
19.04.2019 15:00:00 24,0 8,4 29,7 13,1 11,2 6 3 21 11 E 1023,4 20 60 0,0
19.04.2019 14:00:00 23,8 7,4 27,8 12,9 11,2 8 4 22 12 WSW 1023,6 14 60 0,0
19.04.2019 13:00:00 22,6 7,6 25,9 12,8 11,1 11 6 29 16 WSW 1023,9 20 60 0,0
19.04.2019 12:00:00 21,7 7,1 25,1 12,7 11,2 18 10 29 16 WSW 1024,0 20 60 0,0
19.04.2019 11:00:00 20,0 7,4 23,9 12,7 11,1 7 4 22 12 WSW 1024,0 38 60 0,0
19.04.2019 10:00:00 18,3 9,6 21,4 12,8 11,1 3 2 5 3 E 1023,7 42 60 0,0
19.04.2019 09:00:00 15,4 9,7 12,6 12,9 11,1 3 2 6 3 ESE 1023,3 31 60 0,0
19.04.2019 08:00:00 10,5 7,6 4,0 13,0 11,1 2 1 11 6 NNE 1023,0 17 35 0,0
19.04.2019 07:00:00 9,1 7,7 4,0 13,1 11,1 3 2 8 4 WNW 1022,1 19 0 0,0
19.04.2019 06:00:00 9,3 7,4 4,7 13,2 11,1 7 4 11 6 NNW 1021,7 17 0 0,0
19.04.2019 05:00:00 10,4 7,8 5,8 13,3 11,1 4 2 8 4 SSE 1021,2 25 0 0,0
19.04.2019 04:00:00 11,7 8,5 5,8 13,3 11,1 3 2 7 4 E 1020,7 24 0 0,0
19.04.2019 03:00:00 12,1 8,4 9,5 13,4 11,1 6 4 18 10 E 1020,5 28 0 0,0
19.04.2019 02:00:00 14,1 8,5 8,4 13,5 11,1 7 4 17 9 NNE 1019,9 46 0 0,0
19.04.2019 01:00:00 13,7 8,5 8,8 13,5 11,1 2 1 19 10 WNW 1019,8 54 0 0,0
19.04.2019 00:00:00 14,3 9,1 11,7 13,5 11,1 12 7 19 11 NE 1019,3 53 0 0,0
18.04.2019 23:00:00 15,1 9,2 12,8 13,5 11,1 13 7 21 12 NE 1019,0 56 0 0,0
18.04.2019 22:00:00 16,6 9,5 14,5 13,4 11,1 13 7 22 12 NE 1018,4 60 0 0,0
18.04.2019 21:00:00 18,1 9,4 16,2 13,3 11,0 12 6 26 14 NE 1017,8 60 3 0,0
18.04.2019 20:00:00 20,1 10,2 19,3 13,2 11,1 12 7 33 18 NE 1017,2 60 60 0,0
18.04.2019 19:00:00 22,1 7,9 23,0 13,0 11,0 15 8 30 16 NE 1016,7 55 60 0,0
18.04.2019 18:00:00 22,4 8,9 24,4 12,7 11,0 13 7 24 13 NE 1016,5 39 60 0,0
18.04.2019 17:00:00 23,0 9,0 26,9 12,5 11,0 10 5 24 13 NNE 1016,3 48 60 0,0
18.04.2019 16:00:00 22,5 9,6 26,6 12,3 11,0 14 8 26 14 ENE 1016,3 60 60 0,0
18.04.2019 15:00:00 21,5 8,7 26,1 12,0 11,0 10 5 26 14 ENE 1016,4 20 60 0,0
18.04.2019 14:00:00 20,7 9,0 25,0 11,8 11,0 12 6 27 14 ENE 1016,5 57 60 0,0
18.04.2019 13:00:00 19,5 9,4 22,6 11,7 11,0 9 5 19 11 NE 1016,6 19 57 0,0
18.04.2019 12:00:00 17,7 9,6 23,0 11,6 11,0 8 5 16 9 NE 1017,1 20 60 0,0
18.04.2019 11:00:00 16,5 8,9 18,8 11,7 11,0 7 4 15 8 ESE 1017,3 43 60 0,0
18.04.2019 10:00:00 13,5 8,8 13,8 11,7 11,0 11 6 18 10 E 1017,3 52 60 0,0
18.04.2019 09:00:00 11,1 8,5 8,8 11,8 11,0 6 3 13 7 E 1017,2 20 31 0,0
18.04.2019 08:00:00 9,2 7,5 7,8 11,8 11,0 6 4 21 12 E 1016,7 43 0 0,0
18.04.2019 07:00:00 9,0 7,4 7,4 11,9 11,0 13 7 21 11 ENE 1016,3 34 0 0,0
18.04.2019 06:00:00 9,4 7,7 6,8 11,9 11,0 10 5 20 11 ENE 1016,2 48 0 0,0
18.04.2019 05:00:00 9,0 7,4 6,7 12,0 11,0 9 5 16 9 ENE 1016,2 58 0 0,0
18.04.2019 04:00:00 9,8 7,7 7,7 12,0 11,0 9 5 16 8 NE 1016,4 59 0 0,0
18.04.2019 03:00:00 11,1 8,1 9,7 12,1 11,0 11 6 26 14 ENE 1016,4 60 0 0,0
18.04.2019 02:00:00 11,9 8,0 10,8 12,1 11,0 14 7 22 12 ENE 1016,2 60 0 0,0
18.04.2019 01:00:00 12,1 7,8 10,6 12,2 11,0 14 8 21 11 ENE 1016,4 60 0 0,0
18.04.2019 00:00:00 12,7 7,8 11,0 12,2 11,0 13 7 22 12 ENE 1016,0 60 0 0,0
17.04.2019 23:00:00 13,6 8,2 11,9 12,2 11,0 13 7 22 12 ENE 1016,0 60 0 0,0
17.04.2019 22:00:00 13,6 8,4 10,1 12,1 11,0 14 8 21 11 E 1015,5 60 0 0,0
17.04.2019 21:00:00 13,4 8,5 10,6 12,0 11,0 11 6 19 10 ENE 1015,3 60 0 0,0
17.04.2019 20:00:00 16,6 7,5 15,1 12,0 11,0 13 7 21 11 E 1014,8 60 0 0,0
17.04.2019 19:00:00 17,7 6,8 16,9 11,8 11,0 14 8 30 16 E 1015,0 51 0 0,0
17.04.2019 18:00:00 18,4 5,6 18,5 11,6 11,0 19 11 36 20 E 1015,2 40 0 0,0
17.04.2019 17:00:00 18,8 4,9 19,9 11,4 11,0 21 11 34 19 E 1015,0 22 32 0,0
17.04.2019 16:00:00 18,7 6,8 21,4 11,2 11,0 23 12 35 19 ENE 1015,6 17 60 0,2
17.04.2019 15:00:00 18,6 7,1 22,1 11,0 11,0 23 13 41 22 E 1016,4 19 60 0,0
17.04.2019 14:00:00 17,8 7,5 21,2 10,9 11,0 17 9 39 21 E 1017,1 20 60 0,0
17.04.2019 13:00:00 17,5 7,5 20,8 10,8 11,0 21 11 38 21 ESE 1017,9 27 60 0,0
17.04.2019 12:00:00 16,0 7,7 18,4 10,7 11,0 23 13 34 18 E 1018,4 35 60 0,0
17.04.2019 11:00:00 14,2 8,4 13,9 10,7 11,0 19 10 30 16 E 1018,5 48 26 0,0
17.04.2019 10:00:00 11,5 9,4 10,7 10,7 11,0 11 6 19 10 E 1018,8 50 40 0,0
17.04.2019 09:00:00 8,5 7,7 7,0 10,8 11,0 14 8 19 10 E 1018,7 16 25 0,0
17.04.2019 08:00:00 6,9 6,5 5,0 10,9 11,0 10 6 17 9 ENE 1019,0 10 31 0,0
17.04.2019 07:00:00 6,8 6,5 1,4 11,0 11,0 10 5 16 9 ESE 1018,7 19 0 0,0
17.04.2019 06:00:00 5,6 5,3 1,2 11,1 11,0 7 4 10 5 ESE 1018,9 7 0 0,0
17.04.2019 05:00:00 5,4 5,0 1,2 11,1 11,0 7 4 9 5 ESE 1019,0 7 0 0,0
17.04.2019 04:00:00 6,3 5,6 3,1 11,2 11,0 7 4 11 6 SE 1019,3 7 0 0,0
17.04.2019 03:00:00 7,3 6,9 3,2 11,3 11,0 8 5 10 5 SE 1019,6 11 0 0,0

tt = Température de l'air
td = dewpoint
tt 5cm = Température de l'air 5cm
tt -20cm = Température de l'air -20cm
tt -100cm = Température de l'air -100cm
ff = Vitesse du vent
fx = gusts
dd = Direction du vent
ppp = reduced air pressure
vv = visibility
sd = Ensoleillement
rr = Quantités de précipitations

stations d'obs. à proximité